Wind_Speed
10 1 7 11 9 7 11 5 9 8 6 5 8 18 11 19 12 12 16 11 12 10 17 23 21 18 13 14 7 4 8 8 8 12 13 16 15 15 10 12 13 16 16 16
7 5 19 16 15 12 10 5 8 6 11 5 7 17 7 6 6 10 11 10 8 7 9 16 20 14 10 13 5 1 2 6 8 9 10 13 12 11 8 12 13 15 15 16
5 5 14 15 15 20 17 5 5 8 14 13 13 7 5 4 13 18 17 13 5 5 9 11 15 11 14 9 5 5 4 6 8 9 9 12 12 9 12 13 15 13 12 14
4 4 7 11 8 7 7 13 15 13 3 3 4 2 8 6 11 13 11 10 11 12 10 12 13 13 8 2 10 5 5 5 7 10 10 12 11 12 15 13 14 10 15 14
4 8 4 5 3 10 5 9 10 15 7 7 9 7 7 7 6 9 10 10 11 7 6 7 10 9 6 8 12 11 5 5 8 9 10 9 11 11 13 12 14 11 14 13
3 0 4 4 5 10 7 5 12 5 5 7 10 6 3 3 4 6 5 10 7 4 9 10 9 11 13 15 15 11 7 5 8 10 9 8 11 12 13 10 13 12 13 13
3 1 3 3 6 7 3 5 4 6 5 4 4 9 3 9 3 10 10 6 5 10 9 5 5 13 12 15 16 10 5 8 8 10 8 10 9 11 12 12 13 12 13 13
5 7 4 3 6 4 6 6 3 2 3 3 9 3 3 5 11 7 10 6 8 8 7 5 13 12 10 16 10 8 7 6 8 11 9 9 6 11 11 12 11 11 11 10
4 6 9 6 4 10 6 7 5 3 7 5 1 3 4 6 9 3 6 7 2 7 6 7 13 9 11 10 8 6 5 5 7 10 11 10 10 9 10 11 10 11 9 10
5 4 10 16 15 13 10 9 7 5 4 5 4 5 5 1 6 6 7 7 8 6 7 7 11 12 11 10 6 6 6 6 9 10 10 11 13 11 8 10 9 9 9 9
6 4 6 14 9 14 9 9 6 6 3 3 4 2 5 5 8 8 5 5 7 6 9 8 13 9 15 10 7 6 5 6 9 9 9 12 12 11 8 8 9 9 10 5
3 1 5 13 13 15 11 8 6 4 2 3 4 2 5 7 7 8 7 6 5 9 9 11 14 9 17 9 9 5 5 6 8 10 12 10 11 8 8 7 9 8 12 10
5 4 4 3 5 12 10 9 5 4 3 3 4 3 2 6 7 6 5 3 5 6 7 4 8 13 19 8 7 4 4 6 4 9 9 8 8 5 9 5 7 8 11 5
7 8 10 5 5 5 5 9 10 7 4 8 6 3 7 6 6 7 7 6 6 6 4 4 4 11 15 11 9 3 3 6 6 8 8 5 6 5 3 7 5 6 7 8
7 8 12 8 9 7 5 6 13 12 9 9 6 7 4 4 4 4 5 7 8 6 6 5 6 13 14 11 6 4 3 7 10 8 9 7 7 5 2 5 6 6 7 6
3 3 6 6 8 12 11 13 13 12 11 8 8 8 8 10 8 10 7 7 7 6 7 7 8 12 14 12 6 2 1 5 5 8 11 9 10 10 6 6 4 2 6 3
3 4 3 2 4 5 7 10 9 15 17 11 7 4 9 11 7 7 6 5 5 5 4 6 6 8 10 8 6 2 3 7 9 12 11 9 3 6 5 8 6 2 5 4
5 4 2 3 2 6 3 8 12 18 15 15 13 14 10 7 8 8 17 18 8 5 4 3 3 3 6 7 5 5 6 6 11 13 13 12 8 7 4 4 3 2 4 4
4 3 2 4 2 6 10 16 9 6 7 9 11 11 9 10 9 4 11 15 15 15 8 6 4 3 10 9 7 7 9 10 11 13 14 10 7 5 6 5 7 5 4 5
4 1 7 6 3 2 9 17 17 3 4 12 6 7 6 6 7 4 7 7 11 19 22 23 21 8 9 13 11 12 11 11 13 13 14 12 11 9 9 5 7 8 6 7
5 4 4 1 3 4 11 16 8 7 5 11 9 9 9 6 4 7 14 11 19 17 17 24 19 19 24 21 17 16 14 16 14 13 13 12 12 14 11 13 7 9 8 8
5 3 4 4 4 2 13 8 6 4 5 7 7 8 4 8 9 7 11 14 17 21 23 24 23 19 22 14 17 21 20 20 15 14 14 14 11 15 12 12 12 9 12 13
5 3 3 4 3 3 2 5 5 6 4 6 7 6 6 6 5 7 7 12 17 20 21 24 26 26 26 16 9 12 26 21 16 16 16 15 14 13 14 16 14 15 16 14
5 5 4 4 2 4 6 5 5 5 5 5 5 6 6 5 7 7 10 14 15 20 21 23 21 22 24 28 19 14 25 24 21 17 16 16 16 17 17 16 16 15 18 14
2 3 5 4 5 3 4 2 3 2 3 4 11 7 7 7 6 7 10 15 19 20 25 22 24 23 24 28 22 21 19 22 26 20 16 16 17 18 19 19 18 17 20 20
3 3 2 2 4 2 4 4 9 7 5 8 5 7 11 12 7 12 10 16 19 19 23 23 25 26 23 25 25 25 22 12 14 18 21 17 17 19 18 16 18 17 17 20
Wind_Direction
266 260 270 263 209 84 125 141 164 235 198 83 244 263 96 209 206 167 173 152 151 149 143 129 132 125 110 108 94 53 7 12 3 5 2 4 3 3 360 357 359 356 349 347
17 23 347 8 50 57 42 148 200 228 143 129 102 97 159 221 176 179 133 54 74 126 133 136 133 134 124 123 105 161 58 22 6 16 7 356 346 358 4 355 358 351 352 350
111 262 323 35 28 24 2 332 270 229 160 189 109 50 19 32 52 81 83 92 279 274 145 146 140 146 142 138 197 175 86 15 359 9 7 346 346 350 359 353 348 352 350 353
144 258 327 37 49 56 260 272 283 320 241 113 321 94 28 61 64 102 131 147 214 237 165 164 150 162 139 134 165 136 95 20 353 13 349 340 349 350 346 343 345 343 357 356
19 46 9 51 301 340 264 328 295 302 342 118 1 72 325 18 109 148 187 223 229 250 188 126 142 152 104 108 146 121 72 20 6 359 349 341 337 341 340 345 341 349 357 2
126 272 33 331 309 279 344 288 286 5 98 55 9 92 290 313 199 215 214 229 238 303 122 151 152 103 94 104 121 105 108 18 15 11 354 352 348 348 344 351 354 1 357 359
169 333 110 42 352 323 317 5 358 12 25 91 162 59 312 327 323 214 202 207 161 122 118 225 111 100 101 115 136 142 85 39 14 3 359 358 0 359 354 355 353 354 353 358
348 343 150 166 216 241 343 83 99 4 53 137 11 112 226 295 319 84 133 110 125 133 174 164 120 130 97 131 130 90 67 47 10 351 354 350 348 359 355 359 350 336 349 356
344 351 26 197 66 40 6 16 333 89 102 80 2 228 295 277 292 127 131 105 198 177 168 164 104 88 124 125 114 95 61 14 357 345 344 338 339 351 358 356 360 15 356 8
352 25 24 36 34 27 63 352 24 12 50 102 66 14 333 227 226 202 192 201 179 189 163 114 119 120 138 131 122 112 45 12 357 349 359 348 351 344 327 353 352 350 2 10
19 67 55 60 58 48 16 14 31 102 92 120 142 250 273 1 46 61 113 118 149 193 104 122 139 122 139 132 133 87 37 11 350 1 9 357 9 10 15 10 5 16 14 3
12 54 81 87 71 61 49 34 14 100 291 107 115 221 358 63 66 66 55 111 133 112 149 168 152 138 154 141 121 78 36 16 341 1 3 13 11 21 26 28 30 36 30 21
321 340 121 160 38 40 29 6 13 83 74 47 102 245 280 66 64 83 77 324 161 132 118 154 153 154 150 133 117 65 26 348 337 349 359 5 11 6 28 31 37 40 31 25
87 60 82 106 86 36 34 19 32 63 61 45 93 124 43 41 37 44 22 8 140 152 169 195 122 147 150 147 127 96 14 337 332 339 346 334 352 329 1 358 4 349 351 23
91 93 87 77 112 119 82 67 58 43 21 83 81 72 64 61 57 95 62 34 26 34 64 72 97 157 152 144 148 149 357 321 328 302 311 308 320 315 333 354 327 353 358 351
46 91 86 53 82 78 37 22 74 64 34 46 54 40 18 11 14 54 36 43 26 9 42 46 42 132 157 154 144 137 297 314 344 297 307 312 302 295 303 332 348 7 348 355
80 132 67 106 338 346 30 8 28 64 42 45 42 334 19 14 28 39 5 29 26 355 52 51 92 119 150 150 138 214 290 301 309 293 316 327 330 324 351 299 314 315 355 355
113 89 85 142 256 61 62 21 86 81 41 16 13 5 18 5 330 35 31 352 349 349 103 84 50 169 179 173 177 253 283 271 302 283 300 298 268 315 342 20 10 319 321 327
125 114 136 139 146 134 35 14 345 338 57 20 11 323 349 359 357 334 39 18 333 324 308 187 232 290 200 213 220 243 264 267 273 292 289 293 255 298 307 294 335 296 288 283
26 345 53 355 87 136 360 353 322 338 75 356 339 344 336 355 360 296 3 341 325 15 358 1 338 284 258 231 226 239 253 262 271 280 277 282 245 274 303 287 302 322 291 289
32 48 157 192 107 55 329 0 351 53 311 317 6 356 29 40 25 348 351 352 353 350 351 2 322 341 310 256 239 236 250 256 264 281 275 277 276 271 280 307 280 291 306 284
58 320 30 36 71 43 342 30 63 249 342 4 6 339 47 27 14 0 357 354 351 357 1 359 349 337 319 299 304 246 247 260 266 267 275 273 283 264 275 275 290 300 290 275
45 53 90 49 118 202 22 78 25 42 25 358 355 6 54 24 339 334 328 335 348 357 357 357 354 349 344 317 291 255 266 262 265 263 269 267 270 273 271 274 278 295 288 279
59 52 113 94 58 97 85 69 51 64 30 6 351 23 17 351 336 332 338 348 1 357 351 348 349 347 336 334 303 265 267 275 263 257 261 269 265 266 269 267 277 284 280 285
25 44 114 117 140 198 75 97 99 71 13 8 342 15 343 334 333 3 358 353 349 341 343 344 349 353 347 343 330 309 291 257 259 257 265 266 267 267 270 260 265 264 277 283
28 330 74 97 143 98 287 310 64 48 44 18 21 12 357 25 17 3 340 346 352 347 358 4 1 358 5 19 24 29 17 17 338 322 284 282 273 275 275 257 266 268 277 279
Height
770 794 809 788 783 787 803 814 831 823 815 836 842 845 848 837 846 846 845 849 853 857 860 859 860 866 869 870 870 870 871 870 868 865 863 859 858 856 855 853 851 849 847 845
792 806 780 769 779 790 799 812 821 804 817 840 833 850 850 848 853 845 850 858 860 861 862 862 861 864 867 868 869 870 870 870 867 864 864 862 860 857 855 853 851 849 847 845
805 800 776 785 789 799 805 810 804 807 810 828 832 859 853 852 860 857 864 866 869 867 861 861 858 862 864 865 866 867 870 870 868 864 863 862 860 857 854 852 851 849 847 845
790 774 788 797 804 799 822 798 794 788 803 842 828 878 865 858 869 864 866 865 867 866 859 860 860 863 862 864 867 868 869 870 868 864 863 862 860 857 854 852 851 849 847 844
800 796 794 794 797 792 800 786 785 784 795 829 848 870 874 873 873 870 864 865 865 863 858 861 862 864 863 864 868 869 870 870 867 864 862 861 858 856 854 853 851 849 846 844
792 777 787 792 789 784 781 790 796 791 815 868 870 872 881 878 875 869 862 862 860 861 862 865 864 864 866 867 868 870 869 868 865 863 861 859 857 855 853 852 849 847 846 843
797 797 792 791 803 788 791 808 843 852 855 881 864 878 888 869 863 858 859 860 859 860 865 866 863 865 865 867 868 869 866 865 864 862 860 858 857 855 853 851 849 847 845 843
821 827 799 797 801 802 798 809 845 859 862 879 868 889 882 868 862 852 852 854 858 860 860 861 862 864 865 866 868 867 864 863 863 861 859 857 855 853 852 850 848 847 845 843
821 816 782 793 784 790 804 827 802 826 855 881 893 884 876 864 863 858 860 864 864 862 860 861 862 864 866 867 866 866 864 862 862 860 859 857 854 852 850 849 848 846 844 842
806 828 798 794 786 796 811 804 838 846 874 892 894 892 885 867 862 861 860 861 862 860 861 860 863 865 865 865 866 865 863 862 861 860 858 856 853 851 849 848 847 846 843 841
805 819 824 806 829 834 831 836 832 851 863 880 895 902 864 863 860 862 857 856 858 858 862 861 861 862 863 864 863 863 862 861 860 859 857 856 852 850 849 848 847 845 843 841
806 818 843 837 820 821 831 842 840 866 871 874 884 894 859 859 858 860 860 859 856 856 858 858 859 860 860 861 861 861 861 860 859 858 856 855 853 851 850 848 847 846 844 842
813 830 852 850 838 833 843 837 835 844 853 868 887 896 861 857 859 858 858 853 854 853 854 854 855 856 858 860 860 861 860 859 858 856 855 854 853 851 850 848 847 846 844 842
812 836 850 873 863 853 856 846 843 852 873 873 881 878 869 866 863 860 859 854 854 851 850 851 852 854 856 857 858 859 859 858 857 855 854 853 851 850 849 848 847 846 844 842
828 854 848 849 846 847 849 850 853 863 863 877 876 876 869 863 859 857 855 855 854 854 853 852 852 854 856 856 856 857 856 856 856 854 852 851 851 849 848 846 846 845 844 842
826 857 851 857 844 849 859 853 856 859 862 866 869 878 866 863 857 859 860 858 858 857 855 854 853 853 854 854 855 854 854 854 853 852 851 849 848 847 847 845 844 843 843 841
838 848 861 873 856 854 881 864 857 868 872 874 889 879 869 869 867 865 862 858 857 856 854 854 853 853 852 852 851 853 852 852 852 850 849 848 846 845 843 843 843 842 841 840
841 850 859 876 863 901 868 855 856 874 882 882 881 877 874 874 870 866 864 870 860 855 852 852 852 851 852 850 849 850 850 849 849 848 846 846 845 843 841 841 840 840 839 839
831 848 866 881 876 874 869 874 873 870 896 889 888 884 875 872 871 869 870 870 871 862 853 848 849 849 848 847 846 847 847 846 846 845 844 843 842 841 840 839 838 837 837 837
831 835 870 874 882 896 891 876 857 856 897 887 885 883 879 876 884 881 871 869 867 861 858 856 852 847 845 843 842 843 843 843 842 842 841 840 839 839 838 837 837 836 835 834
861 861 874 875 882 894 886 878 862 898 907 889 885 884 884 887 886 878 872 869 866 862 858 853 850 847 844 840 840 839 839 839 838 839 838 838 838 837 836 835 833 833 832 831
875 876 882 878 892 905 887 881 897 899 891 889 887 884 884 883 879 877 873 870 865 862 857 853 849 844 839 838 840 838 835 833 834 835 834 834 833 833 833 832 831 830 828 827
885 879 889 893 905 895 891 892 891 890 892 890 888 885 883 881 879 875 871 867 864 861 856 852 849 844 839 837 835 833 832 831 830 830 829 829 830 829 829 828 827 826 825 824
876 872 892 891 896 893 890 890 890 889 890 888 885 883 881 880 877 874 870 867 864 860 856 851 847 842 838 833 830 826 827 827 826 825 825 825 825 824 824 824 824 822 821 820
881 877 887 894 893 892 890 888 887 887 886 885 883 881 880 878 875 874 872 867 864 860 855 851 847 843 838 830 825 822 821 821 821 820 820 821 820 819 819 818 818 818 817 817
885 889 893 898 892 892 891 885 885 886 886 885 883 880 878 877 875 872 869 866 862 859 855 851 848 844 839 833 828 824 823 819 818 818 817 817 816 814 814 813 813 813 813 811